Wetterdaten: Woche 12.01.15 - 18.01.15 (KW3)
Datum Zeit Temp. A. Feuchte A. Luftdruck Regen Wind Richtung Sonnenschein ET UV Solar Taupunkt Windchill Windben Empfang
12.01.2015 00:00 2,5 C 63 % 1023,0 hPa 0,0 l/m 9,3 km/h (2 Bft) W-SW 0,00 h 0,000 mm 0,0 UV-I 0 W/m -3,9 C -0,6 C 13,8 km/h (3 Bft) 0,00 %
12.01.2015 01:00 2,1 C 66 % 1023,4 hPa 0,0 l/m 12,1 km/h (2 Bft) W-SW 0,00 h 0,000 mm 0,0 UV-I 0 W/m -3,6 C -2,3 C 17,9 km/h (3 Bft) 0,00 %
12.01.2015 02:00 1,7 C 70 % 1024,0 hPa 0,0 l/m 1,6 km/h (1 Bft) SW 0,00 h 0,000 mm 0,0 UV-I 0 W/m -3,3 C 1,7 C 4,0 km/h (1 Bft) 0,00 %
12.01.2015 03:00 2,0 C 68 % 1023,9 hPa 0,0 l/m 2,2 km/h (1 Bft) N 0,00 h 0,000 mm 0,0 UV-I 0 W/m -3,3 C 2,0 C 6,9 km/h (2 Bft) 0,00 %
12.01.2015 04:00 1,8 C 71 % 1024,5 hPa 0,0 l/m 1,5 km/h (1 Bft) NO 0,00 h 0,000 mm 0,0 UV-I 0 W/m -2,9 C 1,8 C 4,0 km/h (1 Bft) 0,00 %
12.01.2015 05:00 1,8 C 71 % 1024,7 hPa 0,0 l/m 2,3 km/h (1 Bft) SO 0,00 h 0,000 mm 0,0 UV-I 0 W/m -2,8 C 1,8 C 5,9 km/h (2 Bft) 0,00 %
12.01.2015 06:00 2,5 C 70 % 1024,9 hPa 0,0 l/m 3,8 km/h (1 Bft) W-SW 0,00 h 0,000 mm 0,0 UV-I 0 W/m -2,5 C 2,5 C 6,9 km/h (2 Bft) 0,00 %
12.01.2015 07:00 2,5 C 71 % 1025,3 hPa 0,0 l/m 2,3 km/h (1 Bft) W-SW 0,00 h 0,000 mm 0,0 UV-I 0 W/m -2,3 C 2,5 C 5,0 km/h (1 Bft) 0,00 %
12.01.2015 08:00 2,9 C 66 % 1025,3 hPa 0,0 l/m 6,3 km/h (2 Bft) W-SW 0,00 h 0,000 mm 0,0 UV-I 11 W/m -2,8 C 1,5 C 12,0 km/h (2 Bft) 0,00 %
12.01.2015 09:00 4,0 C 58 % 1025,6 hPa 0,0 l/m 5,9 km/h (2 Bft) W-SW 0,00 h 0,000 mm 1,0 UV-I 45 W/m -3,6 C 2,7 C 9,9 km/h (2 Bft) 0,00 %
12.01.2015 10:00 4,7 C 53 % 1025,2 hPa 0,0 l/m 6,9 km/h (2 Bft) O-SO 0,00 h 0,000 mm 1,0 UV-I 89 W/m -4,1 C 3,6 C 11,9 km/h (2 Bft) 0,00 %
12.01.2015 11:00 5,2 C 52 % 1024,4 hPa 0,0 l/m 8,0 km/h (2 Bft) S-SW 0,75 h 0,000 mm 1,0 UV-I 192 W/m -3,9 C 3,5 C 12,9 km/h (3 Bft) 0,00 %
12.01.2015 12:00 5,4 C 52 % 1023,5 hPa 0,0 l/m 8,2 km/h (2 Bft) W-SW 1,00 h 0,000 mm 1,0 UV-I 205 W/m -3,8 C 3,4 C 11,9 km/h (2 Bft) 0,00 %
12.01.2015 13:00 5,3 C 53 % 1023,0 hPa 0,0 l/m 3,1 km/h (1 Bft) W-SW 0,50 h 0,000 mm 1,0 UV-I 127 W/m -3,5 C 5,3 C 5,9 km/h (2 Bft) 0,00 %
12.01.2015 14:00 5,7 C 52 % 1022,7 hPa 0,0 l/m 2,0 km/h (1 Bft) SW 0,00 h 0,000 mm 1,0 UV-I 114 W/m -3,5 C 5,7 C 5,0 km/h (1 Bft) 0,00 %
12.01.2015 15:00 5,6 C 51 % 1022,5 hPa 0,0 l/m 1,1 km/h (0 Bft) W-SW 0,50 h 0,000 mm 1,0 UV-I 73 W/m -3,8 C 5,6 C 4,0 km/h (1 Bft) 0,00 %
12.01.2015 16:00 4,5 C 55 % 1022,8 hPa 0,0 l/m 0,0 km/h (0 Bft) N 0,00 h 0,000 mm 0,0 UV-I 6 W/m -3,7 C 4,5 C 0,0 km/h (0 Bft) 0,00 %
12.01.2015 17:00 3,3 C 61 % 1022,8 hPa 0,0 l/m 0,0 km/h (0 Bft) N 0,00 h 0,000 mm 0,0 UV-I 0 W/m -3,5 C 3,3 C 0,0 km/h (0 Bft) 0,00 %
12.01.2015 18:00 2,5 C 61 % 1022,8 hPa 0,0 l/m 0,0 km/h (0 Bft) N 0,00 h 0,000 mm 0,0 UV-I 0 W/m -4,2 C 2,5 C 0,0 km/h (0 Bft) 0,00 %
12.01.2015 19:00 2,1 C 62 % 1022,6 hPa 0,0 l/m 0,0 km/h (0 Bft) N 0,00 h 0,000 mm 0,0 UV-I 0 W/m -4,5 C 2,1 C 0,0 km/h (0 Bft) 0,00 %
12.01.2015 20:00 1,7 C 63 % 1022,5 hPa 0,0 l/m 0,0 km/h (0 Bft) N 0,00 h 0,000 mm 0,0 UV-I 0 W/m -4,6 C 1,7 C 0,0 km/h (0 Bft) 0,00 %
12.01.2015 21:00 1,8 C 60 % 1022,6 hPa 0,0 l/m 0,7 km/h (0 Bft) O-SO 0,00 h 0,000 mm 0,0 UV-I 0 W/m -5,0 C 1,8 C 2,0 km/h (1 Bft) 0,00 %
12.01.2015 22:00 2,4 C 58 % 1023,1 hPa 0,0 l/m 0,4 km/h (0 Bft) N 0,00 h 0,000 mm 0,0 UV-I 0 W/m -4,9 C 2,4 C 3,0 km/h (1 Bft) 0,00 %
12.01.2015 23:00 2,3 C 56 % 1023,0 hPa 0,0 l/m 0,0 km/h (0 Bft) N 0,00 h 0,000 mm 0,0 UV-I 0 W/m -5,5 C 2,3 C 0,0 km/h (0 Bft) 0,00 %
13.01.2015 00:00 0,7 C 63 % 1023,1 hPa 0,0 l/m 0,1 km/h (0 Bft) N 0,00 h 0,000 mm 0,0 UV-I 0 W/m -5,5 C 0,7 C 1,0 km/h (0 Bft) 0,00 %
13.01.2015 01:00 0,2 C 66 % 1022,8 hPa 0,0 l/m 0,2 km/h (0 Bft) N 0,00 h 0,000 mm 0,0 UV-I 0 W/m -5,5 C 0,2 C 2,0 km/h (1 Bft) 0,00 %
13.01.2015 02:00 0,8 C 59 % 1022,4 hPa 0,0 l/m 0,0 km/h (0 Bft) N 0,00 h 0,000 mm 0,0 UV-I 0 W/m -6,3 C 0,8 C 0,0 km/h (0 Bft) 0,00 %
13.01.2015 03:00 -0,2 C 66 % 1022,2 hPa 0,0 l/m 0,3 km/h (0 Bft) O-SO 0,00 h 0,000 mm 0,0 UV-I 0 W/m -5,9 C -0,2 C 1,0 km/h (0 Bft) 0,00 %
13.01.2015 04:00 -1,3 C 71 % 1021,9 hPa 0,0 l/m 0,0 km/h (0 Bft) N 0,00 h 0,000 mm 0,0 UV-I 0 W/m -5,8 C -1,3 C 0,0 km/h (0 Bft) 0,00 %
13.01.2015 05:00 -1,8 C 73 % 1021,7 hPa 0,0 l/m 0,0 km/h (0 Bft) N 0,00 h 0,000 mm 0,0 UV-I 0 W/m -6,0 C -1,8 C 0,0 km/h (0 Bft) 0,00 %
13.01.2015 06:00 -2,4 C 73 % 1021,3 hPa 0,0 l/m 0,1 km/h (0 Bft) N 0,00 h 0,000 mm 0,0 UV-I 0 W/m -6,5 C -2,4 C 1,0 km/h (0 Bft) 0,00 %
13.01.2015 07:00 -2,5 C 73 % 1021,3 hPa 0,0 l/m 0,0 km/h (0 Bft) N 0,00 h 0,000 mm 0,0 UV-I 0 W/m -6,6 C -2,5 C 0,0 km/h (0 Bft) 0,00 %
13.01.2015 08:00 -2,9 C 72 % 1021,5 hPa 0,0 l/m 0,0 km/h (0 Bft) N 0,00 h 0,000 mm 1,0 UV-I 15 W/m -7,2 C -2,9 C 0,0 km/h (0 Bft) 0,00 %
13.01.2015 09:00 -0,6 C 70 % 1021,3 hPa 0,0 l/m 0,0 km/h (0 Bft) N 0,00 h 0,000 mm 1,0 UV-I 57 W/m -5,5 C -0,6 C 0,0 km/h (0 Bft) 0,00 %
13.01.2015 10:00 2,1 C 60 % 1020,4 hPa 0,0 l/m 0,1 km/h (0 Bft) N 0,00 h 0,000 mm 1,0 UV-I 64 W/m -4,8 C 2,1 C 1,0 km/h (0 Bft) 0,00 %
13.01.2015 11:00 3,3 C 62 % 1019,2 hPa 0,0 l/m 0,1 km/h (0 Bft) N 0,00 h 0,000 mm 1,0 UV-I 65 W/m -3,3 C 3,3 C 1,0 km/h (0 Bft) 0,00 %
13.01.2015 12:00 4,5 C 59 % 1018,1 hPa 0,0 l/m 0,3 km/h (0 Bft) N 0,00 h 0,000 mm 1,0 UV-I 66 W/m -3,0 C 4,5 C 2,0 km/h (1 Bft) 0,00 %
13.01.2015 13:00 5,6 C 57 % 1016,9 hPa 0,0 l/m 0,2 km/h (0 Bft) N 0,00 h 0,000 mm 1,0 UV-I 71 W/m -2,3 C 5,6 C 2,0 km/h (1 Bft) 0,00 %
13.01.2015 14:00 6,0 C 57 % 1016,1 hPa 0,0 l/m 0,4 km/h (0 Bft) N 0,00 h 0,000 mm 1,0 UV-I 66 W/m -1,9 C 6,0 C 3,0 km/h (1 Bft) 0,00 %
13.01.2015 15:00 5,9 C 54 % 1015,6 hPa 0,0 l/m 1,1 km/h (0 Bft) O-SO 0,00 h 0,000 mm 1,0 UV-I 44 W/m -2,6 C 5,9 C 2,0 km/h (1 Bft) 0,00 %
13.01.2015 16:00 4,6 C 55 % 1015,6 hPa 0,0 l/m 0,0 km/h (0 Bft) N 0,00 h 0,000 mm 0,0 UV-I 16 W/m -3,7 C 4,6 C 0,0 km/h (0 Bft) 0,00 %
13.01.2015 17:00 2,3 C 60 % 1015,7 hPa 0,0 l/m 0,0 km/h (0 Bft) N 0,00 h 0,000 mm 0,0 UV-I 0 W/m -4,6 C 2,3 C 0,0 km/h (0 Bft) 0,00 %
13.01.2015 18:00 0,8 C 67 % 1015,6 hPa 0,0 l/m 0,0 km/h (0 Bft) N 0,00 h 0,000 mm 0,0 UV-I 0 W/m -4,7 C 0,8 C 0,0 km/h (0 Bft) 0,00 %
13.01.2015 19:00 -0,2 C 73 % 1015,7 hPa 0,0 l/m 0,0 km/h (0 Bft) N 0,00 h 0,000 mm 0,0 UV-I 0 W/m -4,5 C -0,2 C 0,0 km/h (0 Bft) 0,00 %
13.01.2015 20:00 -0,5 C 75 % 1015,5 hPa 0,0 l/m 0,0 km/h (0 Bft) N 0,00 h 0,000 mm 0,0 UV-I 0 W/m -4,3 C -0,5 C 0,0 km/h (0 Bft) 0,00 %
13.01.2015 21:00 -0,8 C 75 % 1015,7 hPa 0,0 l/m 0,0 km/h (0 Bft) N 0,00 h 0,000 mm 0,0 UV-I 0 W/m -4,6 C -0,8 C 0,0 km/h (0 Bft) 0,00 %
13.01.2015 22:00 -1,0 C 74 % 1015,3 hPa 0,0 l/m 0,0 km/h (0 Bft) N 0,00 h 0,000 mm 0,0 UV-I 0 W/m -5,1 C -1,0 C 0,0 km/h (0 Bft) 0,00 %
13.01.2015 23:00 -1,3 C 72 % 1015,2 hPa 0,0 l/m 0,0 km/h (0 Bft) N 0,00 h 0,000 mm 0,0 UV-I 0 W/m -5,7 C -1,3 C 0,0 km/h (0 Bft) 0,00 %
14.01.2015 00:00 -1,7 C 73 % 1014,8 hPa 0,0 l/m 0,6 km/h (0 Bft) W-SW 0,00 h 0,000 mm 0,0 UV-I 0 W/m -5,9 C -1,7 C 1,0 km/h (0 Bft) 0,00 %
14.01.2015 01:00 -1,8 C 70 % 1014,8 hPa 0,0 l/m 0,0 km/h (0 Bft) N 0,00 h 0,000 mm 0,0 UV-I 0 W/m -6,5 C -1,8 C 0,0 km/h (0 Bft) 0,00 %
14.01.2015 02:00 -2,2 C 70 % 1015,0 hPa 0,0 l/m 0,0 km/h (0 Bft) N 0,00 h 0,000 mm 0,0 UV-I 0 W/m -6,9 C -2,2 C 0,0 km/h (0 Bft) 0,00 %
14.01.2015 03:00 -2,8 C 70 % 1014,9 hPa 0,0 l/m 0,0 km/h (0 Bft) N 0,00 h 0,000 mm 0,0 UV-I 0 W/m -7,6 C -2,8 C 0,0 km/h (0 Bft) 0,00 %
14.01.2015 04:00 -2,4 C 74 % 1015,2 hPa 0,0 l/m 0,0 km/h (0 Bft) N 0,00 h 0,000 mm 0,0 UV-I 0 W/m -6,5 C -2,4 C 0,0 km/h (0 Bft) 0,00 %
14.01.2015 05:00 -1,7 C 74 % 1014,9 hPa 0,0 l/m 0,0 km/h (0 Bft) N 0,00 h 0,000 mm 0,0 UV-I 0 W/m -5,7 C -1,7 C 0,0 km/h (0 Bft) 0,00 %
14.01.2015 06:00 -1,5 C 74 % 1015,4 hPa 0,0 l/m 0,0 km/h (0 Bft) N 0,00 h 0,000 mm 0,0 UV-I 0 W/m -5,4 C -1,5 C 0,0 km/h (0 Bft) 0,00 %
14.01.2015 07:00 -1,2 C 75 % 1015,5 hPa 0,0 l/m 0,0 km/h (0 Bft) N 0,00 h 0,000 mm 0,0 UV-I 0 W/m -5,0 C -1,2 C 0,0 km/h (0 Bft) 0,00 %
14.01.2015 08:00 -0,8 C 75 % 1015,9 hPa 0,0 l/m 0,0 km/h (0 Bft) N 0,00 h 0,000 mm 0,0 UV-I 20 W/m -4,7 C -0,8 C 0,0 km/h (0 Bft) 0,00 %
14.01.2015 09:00 0,3 C 71 % 1016,5 hPa 0,0 l/m 0,1 km/h (0 Bft) N 0,00 h 0,000 mm 1,0 UV-I 78 W/m -4,4 C 0,3 C 1,0 km/h (0 Bft) 0,00 %
14.01.2015 10:00 2,1 C 68 % 1016,4 hPa 0,0 l/m 0,0 km/h (0 Bft) N 0,00 h 0,000 mm 1,0 UV-I 97 W/m -3,3 C 2,1 C 0,0 km/h (0 Bft) 0,00 %
14.01.2015 11:00 6,3 C 58 % 1014,7 hPa 0,0 l/m 1,9 km/h (1 Bft) S 0,00 h 0,000 mm 1,3 UV-I 123 W/m -1,4 C 6,3 C 4,0 km/h (1 Bft) 0,00 %
14.01.2015 12:00 8,9 C 52 % 1013,1 hPa 0,0 l/m 1,8 km/h (1 Bft) NW 1,00 h 0,000 mm 1,7 UV-I 210 W/m -0,5 C 8,9 C 5,0 km/h (1 Bft) 0,00 %
14.01.2015 13:00 8,3 C 60 % 1013,5 hPa 0,3 l/m 4,9 km/h (1 Bft) SW 0,25 h 0,000 mm 1,0 UV-I 61 W/m 0,8 C 7,1 C 6,9 km/h (2 Bft) 0,00 %
14.01.2015 14:00 4,5 C 76 % 1016,3 hPa 0,9 l/m 7,6 km/h (2 Bft) SO 0,00 h 0,000 mm 0,0 UV-I 21 W/m 0,5 C 1,8 C 13,0 km/h (3 Bft) 0,00 %
14.01.2015 15:00 3,4 C 80 % 1017,7 hPa 2,1 l/m 1,2 km/h (1 Bft) N 0,00 h 0,000 mm 0,0 UV-I 4 W/m 0,3 C 3,4 C 4,0 km/h (1 Bft) 0,00 %
14.01.2015 16:00 3,0 C 81 % 1017,7 hPa 0,3 l/m 1,0 km/h (0 Bft) W-NW 0,00 h 0,000 mm 0,0 UV-I 0 W/m 0,0 C 3,0 C 5,0 km/h (1 Bft) 0,00 %
14.01.2015 17:00 3,0 C 79 % 1017,0 hPa 0,0 l/m 0,2 km/h (0 Bft) N 0,00 h 0,000 mm 0,0 UV-I 0 W/m -0,4 C 3,0 C 1,0 km/h (0 Bft) 0,00 %
14.01.2015 18:00 3,4 C 74 % 1016,3 hPa 0,0 l/m 0,1 km/h (0 Bft) N 0,00 h 0,000 mm 0,0 UV-I 0 W/m -0,7 C 3,4 C 1,0 km/h (0 Bft) 0,00 %
14.01.2015 19:00 4,0 C 74 % 1016,3 hPa 0,6 l/m 2,5 km/h (1 Bft) NO 0,00 h 0,000 mm 0,0 UV-I 0 W/m -0,3 C 4,0 C 4,0 km/h (1 Bft) 0,00 %
14.01.2015 20:00 3,8 C 74 % 1017,3 hPa 0,0 l/m 5,1 km/h (1 Bft) SW 0,00 h 0,000 mm 0,0 UV-I 0 W/m -0,5 C 2,8 C 12,0 km/h (2 Bft) 0,00 %
14.01.2015 21:00 2,7 C 72 % 1018,9 hPa 0,0 l/m 2,0 km/h (1 Bft) SW 0,00 h 0,000 mm 0,0 UV-I 0 W/m -1,9 C 2,7 C 5,0 km/h (1 Bft) 0,00 %
14.01.2015 22:00 3,0 C 69 % 1020,2 hPa 0,0 l/m 3,8 km/h (1 Bft) S-SW 0,00 h 0,000 mm 0,0 UV-I 0 W/m -2,1 C 3,0 C 7,9 km/h (2 Bft) 0,00 %
14.01.2015 23:00 3,3 C 66 % 1020,8 hPa 0,0 l/m 4,0 km/h (1 Bft) W-SW 0,00 h 0,000 mm 0,0 UV-I 0 W/m -2,5 C 2,7 C 6,9 km/h (2 Bft) 0,00 %
15.01.2015 00:00 3,0 C 66 % 1021,2 hPa 0,0 l/m 4,4 km/h (1 Bft) W-SW 0,00 h 0,000 mm 0,0 UV-I 0 W/m -2,8 C 1,9 C 6,9 km/h (2 Bft) 0,00 %
15.01.2015 01:00 2,4 C 67 % 1021,0 hPa 0,0 l/m 0,6 km/h (0 Bft) W-SW 0,00 h 0,000 mm 0,0 UV-I 0 W/m -3,1 C 2,4 C 2,0 km/h (1 Bft) 0,00 %
15.01.2015 02:00 1,7 C 69 % 1020,8 hPa 0,0 l/m 0,0 km/h (0 Bft) N 0,00 h 0,000 mm 0,0 UV-I 0 W/m -3,5 C 1,7 C 0,0 km/h (0 Bft) 0,00 %
15.01.2015 03:00 0,9 C 72 % 1020,1 hPa 0,0 l/m 0,1 km/h (0 Bft) N 0,00 h 0,000 mm 0,0 UV-I 0 W/m -3,5 C 0,9 C 1,0 km/h (0 Bft) 0,00 %
15.01.2015 04:00 -0,2 C 78 % 1019,5 hPa 0,0 l/m 0,1 km/h (0 Bft) N 0,00 h 0,000 mm 0,0 UV-I 0 W/m -3,7 C -0,2 C 1,0 km/h (0 Bft) 0,00 %
15.01.2015 05:00 -0,8 C 80 % 1018,9 hPa 0,0 l/m 1,2 km/h (1 Bft) O-SO 0,00 h 0,000 mm 0,0 UV-I 0 W/m -3,7 C -0,8 C 2,0 km/h (1 Bft) 0,00 %
15.01.2015 06:00 -0,2 C 77 % 1018,4 hPa 0,0 l/m 0,2 km/h (0 Bft) O-NO 0,00 h 0,000 mm 0,0 UV-I 0 W/m -3,8 C -0,2 C 1,0 km/h (0 Bft) 0,00 %
15.01.2015 07:00 -0,3 C 76 % 1017,7 hPa 0,0 l/m 3,3 km/h (1 Bft) O-SO 0,00 h 0,000 mm 0,0 UV-I 0 W/m -4,0 C -0,3 C 6,9 km/h (2 Bft) 0,00 %
15.01.2015 08:00 -0,3 C 76 % 1016,8 hPa 0,0 l/m 5,6 km/h (1 Bft) O-SO 0,00 h 0,000 mm 0,0 UV-I 35 W/m -4,0 C -0,5 C 7,9 km/h (2 Bft) 0,00 %
15.01.2015 09:00 0,2 C 75 % 1016,4 hPa 0,0 l/m 0,1 km/h (0 Bft) O-SO 0,00 h 0,000 mm 1,0 UV-I 72 W/m -3,8 C 0,2 C 1,0 km/h (0 Bft) 0,00 %
15.01.2015 10:00 1,1 C 70 % 1015,9 hPa 0,0 l/m 1,1 km/h (0 Bft) N 0,00 h 0,000 mm 1,0 UV-I 116 W/m -3,7 C 1,1 C 2,0 km/h (1 Bft) 0,00 %
15.01.2015 11:00 1,5 C 70 % 1015,0 hPa 0,0 l/m 0,6 km/h (0 Bft) O-SO 0,00 h 0,000 mm 1,0 UV-I 125 W/m -3,4 C 1,5 C 1,0 km/h (0 Bft) 0,00 %
15.01.2015 12:00 2,7 C 71 % 1014,1 hPa 0,0 l/m 1,3 km/h (1 Bft) O 1,00 h 0,000 mm 2,0 UV-I 210 W/m -2,1 C 2,7 C 4,0 km/h (1 Bft) 0,00 %
15.01.2015 13:00 3,5 C 68 % 1012,6 hPa 0,0 l/m 2,3 km/h (1 Bft) O-SO 1,00 h 0,000 mm 1,0 UV-I 226 W/m -1,8 C 3,5 C 4,0 km/h (1 Bft) 0,00 %
15.01.2015 14:00 3,8 C 68 % 1012,0 hPa 0,0 l/m 0,4 km/h (0 Bft) N 0,50 h 0,000 mm 1,0 UV-I 145 W/m -1,6 C 3,8 C 1,0 km/h (0 Bft) 0,00 %
15.01.2015 15:00 3,8 C 71 % 1011,7 hPa 0,0 l/m 0,0 km/h (0 Bft) O 0,25 h 0,000 mm 1,0 UV-I 69 W/m -1,1 C 3,8 C 0,0 km/h (0 Bft) 0,00 %
15.01.2015 16:00 3,1 C 73 % 1011,3 hPa 0,0 l/m 0,6 km/h (0 Bft) N 0,00 h 0,000 mm 0,0 UV-I 12 W/m -1,3 C 3,1 C 2,0 km/h (1 Bft) 0,00 %
15.01.2015 17:00 2,1 C 73 % 1011,2 hPa 0,0 l/m 0,0 km/h (0 Bft) N 0,00 h 0,000 mm 0,0 UV-I 0 W/m -2,2 C 2,1 C 0,0 km/h (0 Bft) 0,00 %
15.01.2015 18:00 1,2 C 76 % 1011,3 hPa 0,0 l/m 0,0 km/h (0 Bft) N 0,00 h 0,000 mm 0,0 UV-I 0 W/m -2,6 C 1,2 C 0,0 km/h (0 Bft) 0,00 %
15.01.2015 19:00 1,0 C 75 % 1010,9 hPa 0,0 l/m 0,2 km/h (0 Bft) N 0,00 h 0,000 mm 0,0 UV-I 0 W/m -2,9 C 1,0 C 2,0 km/h (1 Bft) 0,00 %
15.01.2015 20:00 0,4 C 78 % 1010,6 hPa 0,0 l/m 0,0 km/h (0 Bft) O-SO 0,00 h 0,000 mm 0,0 UV-I 0 W/m -3,0 C 0,4 C 0,0 km/h (0 Bft) 0,00 %
15.01.2015 21:00 0,9 C 76 % 1010,0 hPa 0,0 l/m 1,4 km/h (1 Bft) SO 0,00 h 0,000 mm 0,0 UV-I 0 W/m -2,9 C 0,9 C 3,0 km/h (1 Bft) 0,00 %
15.01.2015 22:00 0,6 C 78 % 1009,9 hPa 0,0 l/m 0,1 km/h (0 Bft) N 0,00 h 0,000 mm 0,0 UV-I 0 W/m -2,8 C 0,6 C 1,0 km/h (0 Bft) 0,00 %
15.01.2015 23:00 -0,1 C 80 % 1009,9 hPa 0,0 l/m 0,0 km/h (0 Bft) N 0,00 h 0,000 mm 0,0 UV-I 0 W/m -3,1 C -0,1 C 0,0 km/h (0 Bft) 0,00 %
16.01.2015 00:00 -0,7 C 82 % 1010,4 hPa 0,0 l/m 0,0 km/h (0 Bft) N 0,00 h 0,000 mm 0,0 UV-I 0 W/m -3,4 C -0,7 C 0,0 km/h (0 Bft) 0,00 %
16.01.2015 01:00 -1,1 C 83 % 1010,6 hPa 0,0 l/m 0,0 km/h (0 Bft) N 0,00 h 0,000 mm 0,0 UV-I 0 W/m -3,7 C -1,1 C 0,0 km/h (0 Bft) 0,00 %
16.01.2015 02:00 -1,4 C 84 % 1011,0 hPa 0,0 l/m 0,0 km/h (0 Bft) N 0,00 h 0,000 mm 0,0 UV-I 0 W/m -3,8 C -1,4 C 0,0 km/h (0 Bft) 0,00 %
16.01.2015 03:00 -1,9 C 84 % 1011,4 hPa 0,0 l/m 0,0 km/h (0 Bft) N 0,00 h 0,000 mm 0,0 UV-I 0 W/m -4,2 C -1,9 C 0,0 km/h (0 Bft) 0,00 %
16.01.2015 04:00 -2,2 C 84 % 1011,4 hPa 0,0 l/m 0,0 km/h (0 Bft) N 0,00 h 0,000 mm 0,0 UV-I 0 W/m -4,5 C -2,2 C 0,0 km/h (0 Bft) 0,00 %
16.01.2015 05:00 -1,1 C 84 % 1011,3 hPa 0,0 l/m 0,2 km/h (0 Bft) O-SO 0,00 h 0,000 mm 0,0 UV-I 0 W/m -3,5 C -1,1 C 2,0 km/h (1 Bft) 0,00 %
16.01.2015 06:00 -0,4 C 83 % 1011,3 hPa 0,0 l/m 3,7 km/h (1 Bft) O-SO 0,00 h 0,000 mm 0,0 UV-I 0 W/m -2,9 C -0,5 C 6,9 km/h (2 Bft) 0,00 %
16.01.2015 07:00 0,0 C 84 % 1011,0 hPa 0,0 l/m 3,7 km/h (1 Bft) O-SO 0,00 h 0,000 mm 0,0 UV-I 0 W/m -2,3 C -0,4 C 5,9 km/h (2 Bft) 0,00 %
16.01.2015 08:00 -0,1 C 84 % 1011,2 hPa 0,0 l/m 3,1 km/h (1 Bft) O 0,00 h 0,000 mm 0,0 UV-I 6 W/m -2,4 C -0,1 C 5,9 km/h (2 Bft) 0,00 %
16.01.2015 09:00 0,1 C 84 % 1011,1 hPa 0,0 l/m 7,9 km/h (2 Bft) O-SO 0,00 h 0,000 mm 1,0 UV-I 35 W/m -2,3 C -2,1 C 11,9 km/h (2 Bft) 0,00 %
16.01.2015 10:00 0,4 C 84 % 1011,1 hPa 0,0 l/m 2,0 km/h (1 Bft) N 0,00 h 0,000 mm 1,0 UV-I 65 W/m -2,0 C 0,3 C 5,0 km/h (1 Bft) 0,00 %
16.01.2015 11:00 1,2 C 82 % 1010,6 hPa 0,0 l/m 2,1 km/h (1 Bft) O-NO 1,00 h 0,000 mm 1,0 UV-I 201 W/m -1,5 C 1,2 C 4,9 km/h (1 Bft) 0,00 %
16.01.2015 12:00 2,8 C 81 % 1009,2 hPa 0,0 l/m 5,2 km/h (1 Bft) NO 0,50 h 0,000 mm 1,3 UV-I 166 W/m -0,3 C 1,5 C 6,9 km/h (2 Bft) 0,00 %
16.01.2015 13:00 4,4 C 75 % 1008,1 hPa 0,0 l/m 6,6 km/h (2 Bft) O 0,00 h 0,000 mm 1,0 UV-I 106 W/m 0,3 C 3,1 C 9,9 km/h (2 Bft) 0,00 %
16.01.2015 14:00 4,9 C 73 % 1007,6 hPa 0,0 l/m 5,7 km/h (1 Bft) O 0,00 h 0,000 mm 1,0 UV-I 100 W/m 0,4 C 3,5 C 7,9 km/h (2 Bft) 0,00 %
16.01.2015 15:00 4,6 C 75 % 1007,4 hPa 0,0 l/m 3,0 km/h (1 Bft) O-SO 0,00 h 0,000 mm 1,0 UV-I 67 W/m 0,6 C 4,6 C 5,9 km/h (2 Bft) 0,00 %
16.01.2015 16:00 3,5 C 79 % 1007,3 hPa 0,0 l/m 3,6 km/h (1 Bft) O 0,00 h 0,000 mm 0,0 UV-I 6 W/m 0,1 C 3,3 C 5,9 km/h (2 Bft) 0,00 %
16.01.2015 17:00 2,5 C 80 % 1007,3 hPa 0,0 l/m 3,4 km/h (1 Bft) O-SO 0,00 h 0,000 mm 0,0 UV-I 0 W/m -0,7 C 2,3 C 5,9 km/h (2 Bft) 0,00 %
16.01.2015 18:00 2,0 C 78 % 1007,0 hPa 0,0 l/m 5,0 km/h (1 Bft) O-SO 0,00 h 0,000 mm 0,0 UV-I 0 W/m -1,5 C 1,3 C 7,9 km/h (2 Bft) 0,00 %
16.01.2015 19:00 1,5 C 79 % 1006,9 hPa 0,0 l/m 1,7 km/h (1 Bft) O-SO 0,00 h 0,000 mm 0,0 UV-I 0 W/m -1,8 C 1,5 C 4,0 km/h (1 Bft) 0,00 %
16.01.2015 20:00 1,3 C 80 % 1006,6 hPa 0,0 l/m 1,7 km/h (1 Bft) O-SO 0,00 h 0,000 mm 0,0 UV-I 0 W/m -1,8 C 1,3 C 3,0 km/h (1 Bft) 0,00 %
16.01.2015 21:00 1,1 C 81 % 1006,1 hPa 0,0 l/m 0,8 km/h (0 Bft) N 0,00 h 0,000 mm 0,0 UV-I 0 W/m -1,9 C 1,1 C 3,0 km/h (1 Bft) 0,00 %
16.01.2015 22:00 0,9 C 81 % 1005,8 hPa 0,0 l/m 0,2 km/h (0 Bft) N 0,00 h 0,000 mm 0,0 UV-I 0 W/m -2,0 C 0,9 C 1,0 km/h (0 Bft) 0,00 %
16.01.2015 23:00 0,6 C 81 % 1005,7 hPa 0,0 l/m 0,0 km/h (0 Bft) N 0,00 h 0,000 mm 0,0 UV-I 0 W/m -2,3 C 0,6 C 0,0 km/h (0 Bft) 0,00 %
17.01.2015 00:00 0,3 C 83 % 1005,4 hPa 0,0 l/m 0,0 km/h (0 Bft) N 0,00 h 0,000 mm 0,0 UV-I 0 W/m -2,3 C 0,3 C 0,0 km/h (0 Bft) 0,00 %
17.01.2015 01:00 0,1 C 83 % 1004,8 hPa 0,0 l/m 0,0 km/h (0 Bft) N 0,00 h 0,000 mm 0,0 UV-I 0 W/m -2,4 C 0,1 C 0,0 km/h (0 Bft) 0,00 %
17.01.2015 02:00 -0,1 C 83 % 1005,0 hPa 0,0 l/m 0,0 km/h (0 Bft) N 0,00 h 0,000 mm 0,0 UV-I 0 W/m -2,7 C -0,1 C 0,0 km/h (0 Bft) 0,00 %
17.01.2015 03:00 0,4 C 82 % 1006,4 hPa 0,0 l/m 0,2 km/h (0 Bft) N 0,00 h 0,000 mm 0,0 UV-I 0 W/m -2,3 C 0,4 C 1,0 km/h (0 Bft) 0,00 %
17.01.2015 04:00 0,2 C 82 % 1007,6 hPa 0,0 l/m 0,3 km/h (0 Bft) N 0,00 h 0,000 mm 0,0 UV-I 0 W/m -2,5 C 0,2 C 2,0 km/h (1 Bft) 0,00 %
17.01.2015 05:00 1,4 C 78 % 1008,4 hPa 0,0 l/m 0,8 km/h (0 Bft) S-SW 0,00 h 0,000 mm 0,0 UV-I 0 W/m -2,0 C 1,4 C 3,0 km/h (1 Bft) 0,00 %
17.01.2015 06:00 2,1 C 76 % 1009,0 hPa 0,0 l/m 0,7 km/h (0 Bft) W 0,00 h 0,000 mm 0,0 UV-I 0 W/m -1,7 C 2,1 C 2,0 km/h (1 Bft) 0,00 %
17.01.2015 07:00 1,9 C 78 % 1009,9 hPa 0,0 l/m 0,0 km/h (0 Bft) N 0,00 h 0,000 mm 0,0 UV-I 0 W/m -1,6 C 1,9 C 0,0 km/h (0 Bft) 0,00 %
17.01.2015 08:00 2,7 C 81 % 1011,0 hPa 0,0 l/m 0,3 km/h (0 Bft) N 0,00 h 0,000 mm 0,0 UV-I 0 W/m -0,2 C 2,7 C 2,0 km/h (1 Bft) 0,00 %
17.01.2015 09:00 3,3 C 83 % 1011,9 hPa 0,0 l/m 0,3 km/h (0 Bft) W-SW 0,00 h 0,000 mm 0,0 UV-I 71 W/m 0,7 C 3,3 C 2,0 km/h (1 Bft) 0,00 %
17.01.2015 10:00 3,5 C 81 % 1012,3 hPa 0,0 l/m 0,7 km/h (0 Bft) N 0,00 h 0,000 mm 0,0 UV-I 48 W/m 0,5 C 3,5 C 1,0 km/h (0 Bft) 0,00 %
17.01.2015 11:00 3,5 C 79 % 1012,4 hPa 0,0 l/m 0,2 km/h (0 Bft) N 0,50 h 0,000 mm 1,0 UV-I 100 W/m 0,3 C 3,5 C 2,0 km/h (1 Bft) 0,00 %
17.01.2015 12:00 3,4 C 81 % 1012,7 hPa 0,3 l/m 0,0 km/h (0 Bft) N 0,00 h 0,000 mm 0,0 UV-I 65 W/m 0,5 C 3,4 C 0,0 km/h (0 Bft) 0,00 %
17.01.2015 13:00 3,2 C 83 % 1012,5 hPa 0,0 l/m 0,0 km/h (0 Bft) N 0,75 h 0,000 mm 1,0 UV-I 207 W/m 0,6 C 3,2 C 0,0 km/h (0 Bft) 0,00 %
17.01.2015 14:00 2,5 C 81 % 1012,7 hPa 0,9 l/m 0,6 km/h (0 Bft) W-SW 0,00 h 0,000 mm 0,0 UV-I 10 W/m -0,4 C 2,5 C 1,0 km/h (0 Bft) 0,00 %
17.01.2015 15:00 1,6 C 81 % 1013,3 hPa 0,6 l/m 0,3 km/h (0 Bft) W-SW 0,00 h 0,000 mm 0,0 UV-I 13 W/m -1,3 C 1,6 C 1,0 km/h (0 Bft) 0,00 %
17.01.2015 16:00 0,5 C 82 % 1014,3 hPa 0,6 l/m 0,6 km/h (0 Bft) N 0,00 h 0,000 mm 0,0 UV-I 0 W/m -2,3 C 0,5 C 1,0 km/h (0 Bft) 0,00 %
17.01.2015 17:00 0,2 C 83 % 1014,9 hPa 0,3 l/m 0,0 km/h (0 Bft) N 0,00 h 0,000 mm 0,0 UV-I 0 W/m -2,4 C 0,2 C 0,0 km/h (0 Bft) 0,00 %
17.01.2015 18:00 0,3 C 83 % 1015,4 hPa 0,3 l/m 0,1 km/h (0 Bft) N 0,00 h 0,000 mm 0,0 UV-I 0 W/m -2,3 C 0,3 C 1,0 km/h (0 Bft) 0,00 %
17.01.2015 19:00 0,4 C 83 % 1015,9 hPa 0,6 l/m 0,0 km/h (0 Bft) N 0,00 h 0,000 mm 0,0 UV-I 0 W/m -2,3 C 0,4 C 0,0 km/h (0 Bft) 0,00 %
17.01.2015 20:00 0,9 C 82 % 1016,2 hPa 0,3 l/m 0,2 km/h (0 Bft) N 0,00 h 0,000 mm 0,0 UV-I 0 W/m -1,9 C 0,9 C 2,0 km/h (1 Bft) 0,00 %
17.01.2015 21:00 0,9 C 82 % 1016,5 hPa 0,0 l/m 0,0 km/h (0 Bft) N 0,00 h 0,000 mm 0,0 UV-I 0 W/m -1,8 C 0,9 C 0,0 km/h (0 Bft) 0,00 %
17.01.2015 22:00 1,0 C 82 % 1016,9 hPa 0,0 l/m 0,1 km/h (0 Bft) N 0,00 h 0,000 mm 0,0 UV-I 0 W/m -1,7 C 1,0 C 1,0 km/h (0 Bft) 0,00 %
17.01.2015 23:00 0,9 C 82 % 1017,1 hPa 0,3 l/m 0,0 km/h (0 Bft) N 0,00 h 0,000 mm 0,0 UV-I 0 W/m -1,8 C 0,9 C 0,0 km/h (0 Bft) 0,00 %
18.01.2015 00:00 0,6 C 82 % 1017,4 hPa 0,3 l/m 0,0 km/h (0 Bft) N 0,00 h 0,000 mm 0,0 UV-I 0 W/m -2,1 C 0,6 C 0,0 km/h (0 Bft) 0,00 %
18.01.2015 01:00 0,7 C 82 % 1017,4 hPa 0,3 l/m 0,0 km/h (0 Bft) N 0,00 h 0,000 mm 0,0 UV-I 0 W/m -2,0 C 0,7 C 0,0 km/h (0 Bft) 0,00 %
18.01.2015 02:00 0,9 C 83 % 1017,6 hPa 0,0 l/m 0,0 km/h (0 Bft) N 0,00 h 0,000 mm 0,0 UV-I 0 W/m -1,7 C 0,9 C 0,0 km/h (0 Bft) 0,00 %
18.01.2015 03:00 0,9 C 83 % 1017,6 hPa 0,0 l/m 0,0 km/h (0 Bft) N 0,00 h 0,000 mm 0,0 UV-I 0 W/m -1,6 C 0,9 C 0,0 km/h (0 Bft) 0,00 %
18.01.2015 04:00 0,9 C 83 % 1017,4 hPa 0,0 l/m 0,0 km/h (0 Bft) N 0,00 h 0,000 mm 0,0 UV-I 0 W/m -1,7 C 0,9 C 0,0 km/h (0 Bft) 0,00 %
18.01.2015 05:00 0,9 C 83 % 1017,3 hPa 0,0 l/m 0,0 km/h (0 Bft) N 0,00 h 0,000 mm 0,0 UV-I 0 W/m -1,7 C 0,9 C 0,0 km/h (0 Bft) 0,00 %
18.01.2015 06:00 0,9 C 83 % 1017,5 hPa 0,0 l/m 0,0 km/h (0 Bft) N 0,00 h 0,000 mm 0,0 UV-I 0 W/m -1,7 C 0,9 C 0,0 km/h (0 Bft) 0,00 %
18.01.2015 07:00 0,9 C 83 % 1017,6 hPa 0,0 l/m 0,0 km/h (0 Bft) N 0,00 h 0,000 mm 0,0 UV-I 0 W/m -1,7 C 0,9 C 0,0 km/h (0 Bft) 0,00 %
18.01.2015 08:00 1,1 C 83 % 1018,1 hPa 0,0 l/m 0,0 km/h (0 Bft) N 0,00 h 0,000 mm 0,0 UV-I 6 W/m -1,5 C 1,1 C 0,0 km/h (0 Bft) 0,00 %
18.01.2015 09:00 1,6 C 82 % 1017,8 hPa 0,0 l/m 0,0 km/h (0 Bft) N 0,00 h 0,000 mm 1,0 UV-I 57 W/m -1,1 C 1,6 C 0,0 km/h (0 Bft) 0,00 %
18.01.2015 10:00 1,9 C 80 % 1017,8 hPa 0,0 l/m 0,0 km/h (0 Bft) N 0,00 h 0,000 mm 1,0 UV-I 54 W/m -1,2 C 1,9 C 0,0 km/h (0 Bft) 0,00 %
18.01.2015 11:00 1,9 C 81 % 1017,3 hPa 0,0 l/m 0,0 km/h (0 Bft) N 0,00 h 0,000 mm 1,3 UV-I 85 W/m -1,0 C 1,9 C 0,0 km/h (0 Bft) 0,00 %
18.01.2015 12:00 2,7 C 79 % 1016,4 hPa 0,0 l/m 0,0 km/h (0 Bft) N 0,00 h 0,000 mm 1,0 UV-I 102 W/m -0,6 C 2,7 C 0,0 km/h (0 Bft) 0,00 %
18.01.2015 13:00 2,2 C 79 % 1015,9 hPa 0,0 l/m 0,2 km/h (0 Bft) N 0,00 h 0,000 mm 1,0 UV-I 40 W/m -1,1 C 2,2 C 2,0 km/h (1 Bft) 0,00 %
18.01.2015 14:00 1,9 C 78 % 1015,6 hPa 0,0 l/m 0,0 km/h (0 Bft) N 0,00 h 0,000 mm 0,0 UV-I 28 W/m -1,5 C 1,9 C 0,0 km/h (0 Bft) 0,00 %
18.01.2015 15:00 1,8 C 79 % 1015,4 hPa 0,0 l/m 0,0 km/h (0 Bft) N 0,00 h 0,000 mm 0,0 UV-I 14 W/m -1,5 C 1,8 C 0,0 km/h (0 Bft) 0,00 %
18.01.2015 16:00 1,6 C 80 % 1015,2 hPa 0,0 l/m 0,1 km/h (0 Bft) N 0,00 h 0,000 mm 0,0 UV-I 0 W/m -1,6 C 1,6 C 1,0 km/h (0 Bft) 0,00 %
18.01.2015 17:00 1,5 C 79 % 1015,0 hPa 0,0 l/m 0,1 km/h (0 Bft) N 0,00 h 0,000 mm 0,0 UV-I 0 W/m -1,8 C 1,5 C 1,0 km/h (0 Bft) 0,00 %
18.01.2015 18:00 1,3 C 79 % 1015,1 hPa 0,0 l/m 0,0 km/h (0 Bft) N 0,00 h 0,000 mm 0,0 UV-I 0 W/m -1,9 C 1,3 C 0,0 km/h (0 Bft) 0,00 %
18.01.2015 19:00 1,4 C 78 % 1015,0 hPa 0,0 l/m 0,0 km/h (0 Bft) N 0,00 h 0,000 mm 0,0 UV-I 0 W/m -2,0 C 1,4 C 0,0 km/h (0 Bft) 0,00 %
18.01.2015 20:00 1,2 C 80 % 1015,0 hPa 0,0 l/m 0,0 km/h (0 Bft) N 0,00 h 0,000 mm 0,0 UV-I 0 W/m -1,9 C 1,2 C 0,0 km/h (0 Bft) 0,00 %
18.01.2015 21:00 1,3 C 80 % 1014,7 hPa 0,0 l/m 1,0 km/h (0 Bft) O-SO 0,00 h 0,000 mm 0,0 UV-I 0 W/m -1,8 C 1,3 C 2,0 km/h (1 Bft) 0,00 %
18.01.2015 22:00 1,4 C 80 % 1014,4 hPa 0,0 l/m 0,6 km/h (0 Bft) N 0,00 h 0,000 mm 0,0 UV-I 0 W/m -1,7 C 1,4 C 1,0 km/h (0 Bft) 0,00 %
18.01.2015 23:00 1,3 C 81 % 1014,0 hPa 0,0 l/m 0,0 km/h (0 Bft) N 0,00 h 0,000 mm 0,0 UV-I 0 W/m -1,6 C 1,3 C 0,0 km/h (0 Bft) 0,00 %
Min-Datum _ 13.01.15 12.01.15 17.01.15 - 12.01.15 - - - - - 14.01.15 12.01.15 12.01.15 12.01.15
_ Min-Zeit 08:15 15:15 01:45 - 02:00 - - - - - 03:30 01:00 02:00 00:00
Minimum _ -3,1 C 50 % 1004,5 hPa - 0,0 km/h (0 Bft) - - - - - -7,7 C -5,8 C 0,0 km/h (0 Bft) 0,00 %
Max-Datum _ 14.01.15 16.01.15 12.01.15 14.01.15 12.01.15 - 12.01.15 12.01.15 14.01.15 15.01.15 14.01.15 14.01.15 14.01.15 12.01.15
_ Max-Zeit 13:00 02:00 09:30 15:00 01:00 - 11:00 00:00 11:45 13:30 13:45 13:00 20:15 00:00
Maximum _ 9,0 C 84 % 1025,8 hPa 2,1 l/m 19,4 km/h
W-SW (3 Bft)
- 0,25 h 0,000 mm 2,0 UV-I 233 W/m 1,8 C 9,0 C 32,0 km/h
SW (5 Bft)
0,00 %
Durchschnitt _ 1,6 C 73 % 1015,8 hPa #9,0 l/m 1,2 km/h (1 Bft) W-SW #9:30 h #0,000 mm 1,1 UV-I 78 W/m -2,8 C 1,4 C 2,5 km/h (1 Bft) 0,00 %